FW0743 Weather Reports


Display with metric or nautical units.
time (UTC)temp
F
wind
direction
speed
MPH
gust
MPH
rain 1hr
in
rain 24hr
in
rain mn
in
humidity
%
barometer
mb
20260509221525 59 201 7.0 16.0 0.00 0.00 0.00 69 1005.6
20260509220037 59 140 3.0 12.0 0.00 0.00 0.00 69 1005.6
20260509214512 60 199 6.0 13.0 0.00 0.00 0.00 67 1005.6
20260509213012 60 178 4.0 16.0 0.00 0.00 0.00 68 1005.6
20260509211507 59 147 7.0 14.0 0.00 0.00 0.00 69 1005.6
20260509210008 60 201 8.0 17.0 0.00 0.00 0.00 67 1005.7
20260509204512 59 167 6.0 17.0 0.00 0.00 0.00 67 1005.7
20260509203022 59 203 7.0 18.0 0.00 0.00 0.00 68 1006.0
20260509201506 60 238 6.0 14.0 0.00 0.00 0.00 68 1006.0
20260509200009 59 177 6.0 16.0 0.00 0.00 0.00 68 1006.2
20260509194512 59 184 5.0 20.0 0.00 0.00 0.00 69 1006.4
20260509193008 58 185 6.0 16.0 0.00 0.00 0.00 70 1006.7
20260509191510 59 282 7.0 12.0 0.00 0.00 0.00 69 1007.0
20260509190010 58 223 6.0 14.0 0.00 0.00 0.00 71 1007.2
20260509184507 57 138 9.0 16.0 0.00 0.00 0.00 72 1007.2
20260509183014 57 150 8.0 16.0 0.00 0.00 0.00 73 1007.4
20260509181511 57 202 6.0 14.0 0.00 0.00 0.00 72 1007.4
20260509180013 56 163 7.0 16.0 0.00 0.00 0.00 74 1007.6
20260509174536 55 178 3.0 13.0 0.00 0.00 0.00 77 1007.6
20260509173007 54 166 7.0 13.0 0.00 0.00 0.00 76 1007.6
20260509171510 53 128 6.0 11.0 0.00 0.00 0.00 77 1007.9
20260509170012 53 135 4.0 17.0 0.00 0.00 0.00 77 1008.1
20260509164517 52 143 7.0 15.0 0.00 0.00 0.00 77 1008.2
20260509163014 52 157 6.0 12.0 0.00 0.00 0.00 78 1008.3
20260509161521 53 155 7.0 14.0 0.00 0.00 0.00 76 1008.6
20260509160016 54 165 5.0 11.0 0.00 0.00 0.00 75 1008.7
20260509154516 53 135 8.0 13.0 0.00 0.00 0.00 76 1008.9
20260509153027 52 135 2.0 9.0 0.00 0.00 0.00 76 1009.1
20260509151518 52 161 4.0 12.0 0.00 0.00 0.00 75 1009.3
20260509150022 52 161 4.0 12.0 0.00 0.00 0.00 74 1009.2
20260509144520 51 126 5.0 13.0 0.00 0.00 0.00 75 1009.3
20260509143018 50 176 4.0 10.0 0.00 0.00 0.00 73 1009.4
20260509141517 49 160 5.0 12.0 0.00 0.00 0.00 74 1009.6
20260509140018 49 136 6.0 12.0 0.00 0.00 0.00 74 1009.7
20260509134519 48 128 5.0 12.0 0.00 0.00 0.00 73 1009.6
20260509133018 47 142 6.0 13.0 0.00 0.00 0.00 73 1009.8
20260509131523 47 217 4.0 10.0 0.00 0.00 0.00 73 1010.0
20260509130020 46 197 3.0 10.0 0.00 0.00 0.00 73 1010.0
20260509124522 45 180 3.0 11.0 0.00 0.00 0.00 72 1010.0
20260509123017 44 162 4.0 10.0 0.00 0.00 0.00 73 1010.0
20260509121504 43 171 3.0 10.0 0.00 0.00 0.00 74 1010.0
20260509120005 42 136 4.0 8.0 0.00 0.00 0.00 72 1010.2
20260509114524 42 190 4.0 11.0 0.00 0.00 0.00 72 1010.2
20260509113017 41 148 4.0 9.0 0.00 0.00 0.00 72 1010.0
20260509111524 40 151 5.0 10.0 0.00 0.00 0.00 73 1009.9
20260509110004 39 146 4.0 10.0 0.00 0.00 0.00 75 1010.0
20260509104507 38 134 4.0 9.0 0.00 0.00 0.00 76 1010.2
20260509103012 37 169 4.0 9.0 0.00 0.00 0.00 77 1010.1
20260509101526 36 157 5.0 8.0 0.00 0.00 0.00 78 1010.0
20260509100021 35 165 2.0 6.0 0.00 0.00 0.00 80 1009.9
20260509094506 36 187 3.0 7.0 0.00 0.00 0.00 80 1009.9
20260509093010 35 173 1.0 5.0 0.00 0.00 0.00 80 1009.9
20260509091514 35 173 2.0 7.0 0.00 0.00 0.00 80 1010.0
20260509090020 35 163 3.0 6.0 0.00 0.00 0.00 80 1010.2
20260509084530 36 156 0.0 7.0 0.00 0.00 0.00 80 1010.5
20260509083011 35 178 4.0 9.0 0.00 0.00 0.00 81 1010.5
20260509081510 35 180 4.0 6.0 0.00 0.00 0.00 82 1010.7
20260509080018 35 173 2.0 6.0 0.00 0.00 0.00 82 1010.8
20260509074526 35 169 2.0 5.0 0.00 0.00 0.00 82 1010.8
20260509073024 35 167 2.0 5.0 0.00 0.00 0.00 83 1010.9
20260509071510 34 184 2.0 6.0 0.00 0.00 0.00 84 1010.9
20260509070015 34 165 1.0 4.0 0.00 0.00 0.00 84 1010.9
20260509064519 35 161 1.0 4.0 0.00 0.00 0.00 83 1011.0
20260509063026 35 159 1.0 3.0 0.00 0.00 0.00 83 1011.2
20260509061528 35 148 1.0 2.0 0.00 0.00 0.00 84 1011.3
20260509060010 36 164 0.0 5.0 0.00 0.00 0.00 84 1011.4
20260509054516 37 157 2.0 5.0 0.00 0.01 0.00 84 1011.5
20260509053022 37 161 4.0 7.0 0.00 0.01 0.00 86 1011.5
20260509051523 37 165 3.0 7.0 0.00 0.01 0.00 87 1011.7
20260509050042 36 169 3.0 6.0 0.00 0.01 0.00 89 1011.8
20260509044512 35 169 2.0 5.0 0.00 0.01 0.00 90 1011.9
20260509043016 34 182 1.0 4.0 0.00 0.01 0.00 91 1012.1
20260509041523 33 311 1.0 2.0 0.00 0.01 0.00 89 1012.1
20260509040026 33 311 0.0 2.0 0.00 0.01 0.00 87 1012.1
20260509034528 33 311 0.0 2.0 0.00 0.01 0.01 87 1012.1
20260509033012 34 311 0.0 1.0 0.00 0.01 0.01 86 1012.0
20260509031530 34 311 0.0 2.0 0.00 0.01 0.01 84 1012.0
20260509030032 35 311 1.0 2.0 0.00 0.01 0.01 84 1012.1
20260509024504 35 311 0.0 1.0 0.00 0.01 0.01 84 1012.2
20260509023017 35 311 0.0 2.0 0.00 0.01 0.01 83 1012.2
20260509021518 35 311 1.0 2.0 0.00 0.01 0.01 80 1012.3
20260509020021 36 311 0.0 1.0 0.00 0.01 0.01 79 1012.3
20260509014527 37 311 0.0 2.0 0.00 0.01 0.01 78 1012.1
20260509013016 38 311 0.0 1.0 0.00 0.01 0.01 74 1011.9
20260509011514 39 311 0.0 0.0 0.00 0.01 0.01 75 1011.8
20260509010023 40 311 0.0 1.0 0.00 0.01 0.01 71 1011.6
20260509004533 42 311 0.0 0.0 0.00 0.01 0.01 64 1011.5
20260509003024 43 311 0.0 0.0 0.00 0.01 0.01 62 1011.4
20260509001512 45 311 0.0 1.0 0.00 0.01 0.01 50 1011.3
20260509000016 47 311 0.0 1.0 0.00 0.01 0.01 48 1011.2
20260508234517 49 311 0.0 1.0 0.00 0.01 0.01 43 1011.2
20260508233023 50 310 1.0 4.0 0.00 0.01 0.01 40 1011.1
20260508231530 52 321 0.0 6.0 0.00 0.01 0.01 39 1011.0
20260508230013 52 264 0.0 3.0 0.00 0.01 0.01 35 1011.1
20260508224519 52 321 3.0 7.0 0.00 0.01 0.01 35 1011.1
20260508223033 52 343 5.0 10.0 0.00 0.01 0.01 36 1011.2